Change the Weather History Date:

Monday, October 22, 2012

  Actual Average Record
Temperature  
Mean Temperature 72 °F -  
Max Temperature 79 °F 78 °F - ()
Min Temperature 66 °F 64 °F - ()
Cooling Degree Days 8    
Growing Degree Days 22 (Base 50)    
Moisture  
Dew Point 67 °F    
Average Humidity 87    
Maximum Humidity 94    
Minimum Humidity 58    
Precipitation  
Precipitation 0.04 in 0.25 in - ()
Sea Level Pressure  
Sea Level Pressure 29.88 in    
Wind  
Wind Speed 3 mph ()    
Max Wind Speed 12 mph    
Max Gust Speed -    
Visibility 4.2 miles    
Events Fog , Rain , Thunderstorm    
T = Trace of Precipitation, MM = Missing Value Source: Averaged Metar Reports

Daily Weather History Graph

Daily Weather History Graph

Search for Another Location

Airport or City:

Trip Planner

Search our weather history database for the weather conditions in past years. The results will help you decide how hot, cold, wet, or windy it might be!

Date:

Astronomy

Oct. 22, 2012 Rise Set
Actual Time 5:25 AM CST 5:16 PM CST
Civil Twilight 5:04 AM CST 5:37 PM CST
Nautical Twilight 4:39 AM CST 6:02 PM CST
Astronomical Twilight 4:15 AM CST 6:27 PM CST
Moon 12:15 PM CST (10/22) No Moon Set
Length of Visible Light 12h 33m
Length of Day
11h 50m
First Quarter, 57% of the Moon is Illuminated
Oct 22
First Quarter
Oct 29
Full
Nov 6
Last Quarter
Nov 13
New
Nov 20
First Quarter

Hourly Weather History & Observations

Time (CST) Temp. Dew Point Humidity Pressure Visibility Wind Dir Wind Speed Gust Speed Precip Events Conditions
12:00 AM 69 °F 67 °F 92% 29.78 in 1 mi Calm Calm - - Rain Light Rain
12:00 AM 69.8 °F 68.0 °F 94% 29.94 in 1.2 mi Calm Calm - N/A Rain Rain
1:00 AM 69.8 °F 68.0 °F 94% 29.91 in 3.1 mi Calm Calm - N/A   Mostly Cloudy
2:00 AM 69.8 °F 68.0 °F 94% 29.89 in 5.6 mi Calm Calm - N/A   Mostly Cloudy
2:07 AM 69.8 °F 68.0 °F 94% 29.89 in 0.3 mi SSW 3.5 mph - N/A Fog Fog
3:00 AM 68 °F 67 °F 94% 29.77 in 6 mi NNW 3.5 mph - - Fog Patches of Fog
3:00 AM 68.0 °F 66.2 °F 94% 29.87 in 6.2 mi NNW 3.5 mph - N/A Fog Scattered Clouds
4:00 AM 68.0 °F 66.2 °F 94% 29.89 in 6.2 mi Calm Calm - N/A Fog Partly Cloudy
4:29 AM 68.0 °F 66.2 °F 94% 29.89 in 0.5 mi Calm Calm - N/A Fog Fog
5:00 AM 68.0 °F 66.2 °F 94% 29.90 in 0.3 mi Calm Calm - N/A Fog Fog
6:00 AM 68.0 °F 66.2 °F 94% 29.94 in 0.3 mi Calm Calm - N/A Fog Fog
6:15 AM 68.0 °F 66.2 °F 94% 29.94 in 0.7 mi North 2.3 mph - N/A   Scattered Clouds
7:00 AM 69.8 °F 68.0 °F 94% 29.95 in 1.6 mi ENE 2.3 mph - N/A   Scattered Clouds
7:40 AM 73.4 °F 66.2 °F 78% 29.95 in 6.2 mi East 2.3 mph - N/A   Mostly Cloudy
8:00 AM 75.2 °F 66.2 °F 73% 29.94 in 6.2 mi East 2.3 mph - N/A   Mostly Cloudy
9:00 AM 78 °F 66 °F 58% 29.80 in 12 mi WSW 1.2 mph - -   Scattered Clouds
9:00 AM 78.8 °F 66.2 °F 65% 29.96 in 6.2 mi WSW 1.2 mph - N/A   Mostly Cloudy
10:00 AM 77.0 °F 66.2 °F 69% 29.96 in 6.2 mi West 9.2 mph - N/A   Mostly Cloudy
11:00 AM 77.0 °F 68.0 °F 74% 29.93 in 6.2 mi WSW 6.9 mph - N/A   Mostly Cloudy
12:00 PM 79 °F 68 °F 61% 29.72 in 9 mi WSW 9.2 mph - -   Overcast
12:00 PM 78.8 °F 68.0 °F 69% 29.90 in 6.2 mi WSW 9.2 mph - N/A   Mostly Cloudy
1:00 PM 78.8 °F 68.0 °F 69% 29.87 in 5.6 mi WSW 11.5 mph - N/A Rain , Thunderstorm Light Rain
2:00 PM 71.6 °F 68.0 °F 88% 29.85 in 3.1 mi SW 11.5 mph - N/A Rain Rain
2:35 PM 69.8 °F 68.0 °F 94% 29.85 in 0.7 mi WSW 8.1 mph - N/A Rain , Thunderstorm Rain
2:41 PM 69.8 °F 68.0 °F 94% 29.85 in 0.4 mi SW 6.9 mph - N/A Fog , Rain Rain
3:00 PM 70 °F 68 °F 91% 29.71 in 0 mi SW 8.1 mph - - Rain Rain
3:00 PM 69.8 °F 68.0 °F 94% 29.86 in 0.4 mi SW 8.1 mph - N/A Fog , Rain Rain
3:10 PM 69.8 °F 68.0 °F 94% 29.87 in 1.2 mi SW 6.9 mph - N/A Rain Rain
4:00 PM 69.8 °F 68.0 °F 94% 29.88 in 2.2 mi WSW 5.8 mph - N/A   Mostly Cloudy
5:00 PM 71.6 °F 68.0 °F 88% 29.89 in 3.7 mi WSW 3.5 mph - N/A Fog , Rain Light Rain
6:00 PM 71 °F 68 °F 87% 29.77 in 3 mi ESE 1.2 mph - - Rain Light Rain
6:00 PM 71.6 °F 68.0 °F 88% 29.89 in 6.2 mi ESE 1.2 mph - N/A Rain Rain
7:00 PM 69.8 °F 68.0 °F 94% 29.91 in 6.2 mi ESE 1.2 mph - N/A Fog Mostly Cloudy
8:00 PM 69.8 °F 66.2 °F 88% 29.94 in 6.2 mi Calm Calm - N/A Fog , Rain Light Rain
9:00 PM 69 °F 67 °F 92% 29.78 in 12 mi West 3.5 mph - - Fog Patches of Fog
9:00 PM 69.8 °F 68.0 °F 94% 29.95 in 6.2 mi West 3.5 mph - N/A Fog Patches of Fog
10:00 PM 69.8 °F 68.0 °F 94% 29.94 in 5.0 mi West 2.3 mph - N/A Fog Fog
11:00 PM 68.0 °F 66.2 °F 94% 29.93 in 6.2 mi SE 2.3 mph - N/A Fog Patches of Fog